RYR9541 EPKK-LRBS

Flight info

Callsign RYR9541
Flight time N/A
Altitude 39000
Route REGTO DCT RAZEC DCT KEKED DCT BADOR DCT OBARA DCT IRLOX DCT ABRUT
Aircraft B738/M-SDFGIJ1LRWY/SB1

Departure

Time N/A
Airport Kraków John Paul II International Airport (EPKK)

Arrival

Time 2026-05-05 05:04
Airport Bucharest Băneasa Aurel Vlaicu International Airport (LRBS)
Time Latitude Longitude Altitude Speed Heading
2026-05-05 04:47 45.04001 24.71666 19882 ft 367 kts 123°
2026-05-05 04:47 45.02555 24.74542 19321 ft 361 kts 121°
2026-05-05 04:48 45.01115 24.77400 18822 ft 357 kts 123°
2026-05-05 04:48 44.99587 24.80174 18401 ft 355 kts 125°
2026-05-05 04:48 44.98030 24.82835 17937 ft 354 kts 126°
2026-05-05 04:48 44.96462 24.85470 17479 ft 353 kts 126°
2026-05-05 04:49 44.94893 24.88111 17026 ft 351 kts 126°
2026-05-05 04:49 44.93324 24.90771 16565 ft 350 kts 126°
2026-05-05 04:49 44.91800 24.93370 16116 ft 348 kts 125°
2026-05-05 04:49 44.90261 24.96007 15659 ft 347 kts 125°
2026-05-05 04:50 44.88743 24.98612 15207 ft 345 kts 125°
2026-05-05 04:50 44.87219 25.01227 14757 ft 344 kts 125°
2026-05-05 04:50 44.85711 25.03813 14304 ft 342 kts 125°
2026-05-05 04:50 44.84207 25.06389 13859 ft 340 kts 124°
2026-05-05 04:51 44.82718 25.08938 13415 ft 339 kts 125°
2026-05-05 04:51 44.81222 25.11496 12970 ft 337 kts 125°
2026-05-05 04:51 44.79744 25.14021 12528 ft 335 kts 125°
2026-05-05 04:51 44.78262 25.16550 12090 ft 334 kts 125°
2026-05-05 04:52 44.76804 25.19033 11854 ft 325 kts 125°
2026-05-05 04:52 44.75395 25.21427 11680 ft 316 kts 125°
2026-05-05 04:52 44.74011 25.23778 11502 ft 307 kts 125°
2026-05-05 04:52 44.72665 25.26065 11304 ft 301 kts 125°
2026-05-05 04:53 44.71328 25.28342 10939 ft 300 kts 125°
2026-05-05 04:53 44.70004 25.30597 10575 ft 299 kts 125°
2026-05-05 04:53 44.68700 25.32813 10316 ft 295 kts 125°
2026-05-05 04:53 44.67402 25.35015 10063 ft 290 kts 125°
2026-05-05 04:54 44.66129 25.37171 9818 ft 286 kts 125°
2026-05-05 04:54 44.64856 25.39328 9556 ft 283 kts 125°
2026-05-05 04:54 44.63609 25.41440 9213 ft 283 kts 125°
2026-05-05 04:54 44.62364 25.43549 8866 ft 283 kts 125°
2026-05-05 04:55 44.61115 25.45663 8520 ft 283 kts 125°
2026-05-05 04:55 44.59851 25.47800 8167 ft 282 kts 125°
2026-05-05 04:55 44.58610 25.49893 7821 ft 282 kts 126°
2026-05-05 04:55 44.57354 25.52009 7473 ft 282 kts 126°
2026-05-05 04:56 44.56096 25.54128 7137 ft 281 kts 126°
2026-05-05 04:56 44.54864 25.56201 6884 ft 276 kts 126°
2026-05-05 04:56 44.53650 25.58240 6639 ft 273 kts 126°
2026-05-05 04:56 44.52439 25.60273 6387 ft 269 kts 126°
2026-05-05 04:57 44.51239 25.62287 6138 ft 266 kts 126°
2026-05-05 04:57 44.50071 25.64248 5875 ft 263 kts 126°
2026-05-05 04:57 44.48901 25.66213 5616 ft 261 kts 127°
2026-05-05 04:57 44.47742 25.68156 5372 ft 259 kts 127°
2026-05-05 04:58 44.46582 25.70099 5034 ft 257 kts 127°
2026-05-05 04:58 44.45459 25.71977 4761 ft 251 kts 127°
2026-05-05 04:58 44.44372 25.73838 4523 ft 244 kts 123°
2026-05-05 04:58 44.43580 25.75898 4257 ft 235 kts 102°
2026-05-05 04:59 44.43573 25.78080 4149 ft 220 kts 76°
2026-05-05 04:59 44.43979 25.80062 4038 ft 210 kts 70°
2026-05-05 04:59 44.44413 25.81980 3951 ft 200 kts 71°
2026-05-05 04:59 44.44798 25.83797 3830 ft 191 kts 71°
2026-05-05 05:00 44.45159 25.85522 3734 ft 182 kts 71°
2026-05-05 05:00 44.45517 25.87223 3499 ft 181 kts 72°
2026-05-05 05:00 44.45873 25.88918 3243 ft 181 kts 72°
2026-05-05 05:00 44.46227 25.90605 2988 ft 182 kts 72°
2026-05-05 05:01 44.46579 25.92289 2733 ft 182 kts 72°
2026-05-05 05:01 44.46939 25.94009 2477 ft 183 kts 72°
2026-05-05 05:01 44.47293 25.95703 2222 ft 183 kts 73°
2026-05-05 05:01 44.47648 25.97402 1968 ft 182 kts 73°
2026-05-05 05:02 44.47999 25.99090 1717 ft 175 kts 73°
2026-05-05 05:02 44.48322 26.00644 1498 ft 161 kts 73°
2026-05-05 05:02 44.48624 26.02096 1263 ft 149 kts 73°
2026-05-05 05:02 44.48898 26.03407 1073 ft 137 kts 73°
2026-05-05 05:03 44.49160 26.04667 900 ft 133 kts 73°
2026-05-05 05:03 44.49426 26.05929 734 ft 138 kts 73°
2026-05-05 05:03 44.49697 26.07211 530 ft 136 kts 73°
2026-05-05 05:03 44.49959 26.08474 342 ft 135 kts 73°
2026-05-05 05:04 44.50196 26.09624 293 ft 89 kts 73°
2026-05-05 05:04 44.50306 26.10148 294 ft 40 kts 73°
2026-05-05 05:04 44.50349 26.10353 292 ft 11 kts 73°
2026-05-05 05:04 44.50314 26.10419 291 ft 10 kts 161°
2026-05-05 05:05 44.50247 26.10447 291 ft 10 kts 168°
2026-05-05 05:05 44.50176 26.10411 290 ft 14 kts 239°
2026-05-05 05:05 44.50141 26.10260 292 ft 18 kts 254°
2026-05-05 05:05 44.50103 26.10074 294 ft 21 kts 253°
2026-05-05 05:06 44.50056 26.09849 295 ft 26 kts 254°
2026-05-05 05:06 44.50002 26.09588 294 ft 28 kts 253°
2026-05-05 05:06 44.49948 26.09325 292 ft 28 kts 254°
2026-05-05 05:06 44.49894 26.09065 292 ft 27 kts 253°
2026-05-05 05:07 44.49840 26.08806 290 ft 27 kts 254°
2026-05-05 05:07 44.49788 26.08552 294 ft 18 kts 253°
2026-05-05 05:07 44.49758 26.08458 298 ft 8 kts 206°
2026-05-05 05:07 44.49689 26.08429 299 ft 11 kts 229°
2026-05-05 05:08 44.49691 26.08355 303 ft 6 kts 292°
2026-05-05 05:08 44.49712 26.08298 304 ft 5 kts 289°
2026-05-05 05:08 44.49716 26.08264 304 ft 0 kts 277°
2026-05-05 05:08 44.49717 26.08255 305 ft 1 kts 277°
2026-05-05 05:09 44.49719 26.08227 305 ft 2 kts 261°
2026-05-05 05:09 44.49698 26.08211 305 ft 4 kts 189°
2026-05-05 05:09 44.49667 26.08209 305 ft 3 kts 181°
2026-05-05 05:09 44.49659 26.08209 305 ft 0 kts 182°